Погода в Лажборовице

Россия / Костромская область     59°12′21″N   46°51′59″E
темп.,
°C
ветер,
м/с
пор.,
м/с
влажн.,
%
обл.,
%
осадки,
мм/ч
давл.,
гПа
погр.,
м
11 апреля, вс
вс1100:00−2ююз289718 0.0 1026148
03:00−3ю279822 0.0 1026130
06:00−3ююз399843 0.0 1026176
09:00+2ююз410935 0.0 1027387
12:00+7юз488313 0.0 1027774
15:00+6з2693100 0.1 1029201
18:00+4юз119933 0.0 103130
21:00−1юз24978 0.0 103344
12 апреля, пн
пн1200:00−2з119711 0.0 103512
03:00−4ссз11975 0.0 103810
06:00−3ссв019259 0.0 103918
09:00+5юв11705 0.0 1039301
12:00+8ююв23527 0.0 1039728
15:00+8ю23635 0.0 1039715
18:00+5юв11915 0.0 103810
21:00+2ююв279496 0.0 1038117
13 апреля, вт
вт1300:00+1ююв2997100 0.0 1037158
03:00+1ююв2998100 0.0 1036196
06:00+3ююв31196100 0.0 1034286
09:00+6ю4890100 0.0 1032349
12:00+10ю4884100 0.0 1030546
15:00+14ююз4975100 0.0 1028838
18:00+12ююз31086100 0.0 1027320
21:00+9ю31293100 0.0 1027292
14 апреля, ср
ср1400:00+8ююз31195100 0.0 1027237
03:00+6ююз2894100 0.0 1027148
06:00+6ююз2890100 0.0 1026167
09:00+11ююз486862 0.0 1025350
12:00+16ююз585271 0.0 1024858
15:00+17юз49545 0.0 10221296
18:00+14ююз396634 0.0 1021256
21:00+10ююз3127787 0.0 1021264
15 апреля, чт
чт1500:00+8ююз2108343 0.0 1021202
03:00+6юз228963 0.0 102030
06:00+6сз119061 0.0 102035
09:00+10ссв2281100 0.0 1020477
12:00+11с2274100 0.0 1019744
15:00+9с4477100 0.0 1019576
18:00+5с4787100 0.0 1020448
21:00+2с4996100 0.2 1021366